N5172C KROC-KBKL

Flight info

Callsign N5172C
Flight time 1h 24m
Altitude 10000
Route ROC LFTON TRYBE4
Aircraft BE36/L-BDFGLORY/S

Departure

Time 2026-04-30 02:12
Airport Frederick Douglass Greater Rochester International Airport (KROC)

Arrival

Time 2026-04-30 03:36
Airport Burke Lakefront Airport (KBKL)
Time Latitude Longitude Altitude Speed Heading
2026-04-30 01:49 43.11659 -77.66550 556 ft 0 kts 127°
2026-04-30 01:50 43.11659 -77.66551 556 ft 0 kts 127°
2026-04-30 01:50 43.11660 -77.66551 556 ft 0 kts 127°
2026-04-30 01:59 43.11660 -77.66552 556 ft 0 kts 127°
2026-04-30 02:04 43.11659 -77.66548 556 ft 0 kts 89°
2026-04-30 02:04 43.11663 -77.66541 552 ft 0 kts 35°
2026-04-30 02:05 43.11662 -77.66541 553 ft 0 kts 35°
2026-04-30 02:06 43.11667 -77.66540 566 ft 3 kts 352°
2026-04-30 02:06 43.11677 -77.66569 563 ft 2 kts 302°
2026-04-30 02:06 43.11728 -77.66607 559 ft 12 kts 335°
2026-04-30 02:07 43.11782 -77.66542 565 ft 14 kts 67°
2026-04-30 02:07 43.11830 -77.66406 558 ft 18 kts 64°
2026-04-30 02:07 43.11886 -77.66258 562 ft 16 kts 61°
2026-04-30 02:07 43.11931 -77.66126 559 ft 15 kts 64°
2026-04-30 02:08 43.11976 -77.66007 562 ft 13 kts 64°
2026-04-30 02:08 43.12012 -77.65898 564 ft 12 kts 54°
2026-04-30 02:08 43.12051 -77.65794 560 ft 13 kts 63°
2026-04-30 02:08 43.12097 -77.65669 565 ft 16 kts 61°
2026-04-30 02:09 43.12173 -77.65596 554 ft 14 kts 359°
2026-04-30 02:09 43.12232 -77.65600 553 ft 0 kts 355°
2026-04-30 02:09 43.12255 -77.65601 552 ft 9 kts
2026-04-30 02:10 43.12271 -77.65602 552 ft 0 kts
2026-04-30 02:11 43.12281 -77.65602 552 ft 7 kts 356°
2026-04-30 02:11 43.12335 -77.65639 550 ft 10 kts 278°
2026-04-30 02:11 43.12337 -77.65739 550 ft 13 kts 267°
2026-04-30 02:11 43.12317 -77.66268 595 ft 94 kts 272°
2026-04-30 02:12 43.12267 -77.67326 874 ft 116 kts 277°
2026-04-30 02:12 43.12444 -77.68421 1270 ft 127 kts 288°
2026-04-30 02:12 43.12659 -77.69688 1639 ft 144 kts 287°
2026-04-30 02:12 43.12830 -77.71082 1974 ft 152 kts 286°
2026-04-30 02:13 43.12988 -77.72504 2432 ft 147 kts 281°
2026-04-30 02:13 43.13051 -77.73900 2722 ft 158 kts 281°
2026-04-30 02:13 43.13155 -77.74945 2624 ft 173 kts 284°
2026-04-30 02:13 43.13352 -77.76615 2562 ft 181 kts 282°
2026-04-30 02:14 43.13467 -77.78280 2653 ft 171 kts 279°
2026-04-30 02:14 43.13627 -77.79835 2919 ft 156 kts 280°
2026-04-30 02:14 43.13817 -77.81353 2805 ft 168 kts 289°
2026-04-30 02:14 43.14179 -77.83375 2893 ft 164 kts 287°
2026-04-30 02:15 43.14357 -77.84398 2926 ft 162 kts 288°
2026-04-30 02:15 43.14617 -77.85867 3090 ft 157 kts 288°
2026-04-30 02:15 43.14863 -77.87313 3244 ft 155 kts 288°
2026-04-30 02:15 43.15106 -77.88748 3412 ft 154 kts 288°
2026-04-30 02:16 43.15352 -77.90164 3574 ft 152 kts 287°
2026-04-30 02:16 43.15136 -77.91574 3733 ft 160 kts 236°
2026-04-30 02:16 43.14380 -77.92744 3942 ft 167 kts 233°
2026-04-30 02:16 43.13653 -77.93987 4160 ft 167 kts 234°
2026-04-30 02:17 43.12939 -77.95252 4372 ft 169 kts 236°
2026-04-30 02:17 43.12239 -77.96548 4578 ft 171 kts 238°
2026-04-30 02:17 43.11518 -77.97842 4778 ft 171 kts 236°
2026-04-30 02:17 43.10813 -77.99131 4984 ft 172 kts 237°
2026-04-30 02:18 43.10107 -78.00451 5201 ft 171 kts 237°
2026-04-30 02:18 43.09385 -78.01781 5459 ft 176 kts 236°
2026-04-30 02:18 43.08650 -78.03127 5723 ft 177 kts 234°
2026-04-30 02:18 43.07910 -78.04447 5984 ft 172 kts 236°
2026-04-30 02:19 43.07202 -78.05739 6243 ft 168 kts 236°
2026-04-30 02:19 43.06506 -78.07011 6487 ft 166 kts 236°
2026-04-30 02:19 43.05819 -78.08264 6734 ft 164 kts 235°
2026-04-30 02:19 43.05134 -78.09510 7028 ft 165 kts 235°
2026-04-30 02:20 43.04441 -78.10771 7326 ft 167 kts 234°
2026-04-30 02:20 43.03741 -78.12047 7626 ft 168 kts 234°
2026-04-30 02:20 43.03041 -78.13318 7935 ft 167 kts 235°
2026-04-30 02:20 43.02331 -78.14585 8244 ft 168 kts 235°
2026-04-30 02:21 43.01637 -78.15867 8552 ft 168 kts 235°
2026-04-30 02:21 43.00936 -78.17144 8863 ft 168 kts 234°
2026-04-30 02:21 43.00235 -78.18420 9178 ft 168 kts 234°
2026-04-30 02:21 42.99535 -78.19693 9497 ft 168 kts 234°
2026-04-30 02:22 42.98833 -78.20962 9811 ft 167 kts 233°
2026-04-30 02:22 42.98130 -78.22231 10098 ft 168 kts 234°
2026-04-30 02:22 42.97424 -78.23515 10389 ft 170 kts 234°
2026-04-30 02:22 42.96714 -78.24803 10682 ft 170 kts 233°
2026-04-30 02:23 42.95999 -78.26096 10981 ft 171 kts 233°
2026-04-30 02:23 42.95284 -78.27392 11283 ft 171 kts 233°
2026-04-30 02:23 42.94565 -78.28691 11585 ft 172 kts 233°
2026-04-30 02:23 42.93839 -78.30003 11814 ft 177 kts 233°
2026-04-30 02:24 42.93079 -78.31387 11822 ft 187 kts 233°
2026-04-30 02:24 42.92275 -78.32825 11830 ft 193 kts 233°
2026-04-30 02:24 42.91462 -78.34293 11829 ft 192 kts 233°
2026-04-30 02:24 42.90677 -78.35718 11829 ft 183 kts 233°
2026-04-30 02:25 42.89924 -78.37080 11822 ft 177 kts 233°
2026-04-30 02:25 42.89190 -78.38404 11817 ft 174 kts 233°
2026-04-30 02:25 42.88465 -78.39712 11824 ft 172 kts 233°
2026-04-30 02:25 42.87745 -78.41007 11824 ft 171 kts 233°
2026-04-30 02:26 42.87042 -78.42277 11821 ft 162 kts 233°
2026-04-30 02:26 42.86386 -78.43458 11821 ft 151 kts 233°
2026-04-30 02:26 42.85763 -78.44576 11821 ft 147 kts 233°
2026-04-30 02:26 42.85140 -78.45694 11820 ft 149 kts 233°
2026-04-30 02:27 42.84514 -78.46821 11823 ft 149 kts 233°
2026-04-30 02:27 42.83888 -78.47947 11821 ft 149 kts 233°
2026-04-30 02:27 42.83263 -78.49070 11821 ft 149 kts 233°
2026-04-30 02:27 42.82637 -78.50195 11822 ft 149 kts 233°
2026-04-30 02:28 42.82015 -78.51311 11872 ft 146 kts 233°
2026-04-30 02:28 42.81414 -78.52388 11987 ft 141 kts 233°
2026-04-30 02:28 42.80815 -78.53465 11992 ft 144 kts 233°
2026-04-30 02:28 42.80204 -78.54562 11993 ft 146 kts 233°
2026-04-30 02:29 42.79585 -78.55672 11994 ft 148 kts 233°
2026-04-30 02:29 42.78960 -78.56790 11996 ft 149 kts 233°
2026-04-30 02:29 42.78337 -78.57907 11998 ft 148 kts 233°
2026-04-30 02:29 42.77713 -78.59024 11998 ft 148 kts 233°
2026-04-30 02:30 42.77087 -78.60144 11997 ft 149 kts 233°
2026-04-30 02:30 42.76460 -78.61267 11997 ft 149 kts 233°
2026-04-30 02:30 42.75833 -78.62389 11998 ft 149 kts 233°
2026-04-30 02:30 42.75205 -78.63510 12000 ft 149 kts 233°
2026-04-30 02:31 42.74580 -78.64628 12000 ft 149 kts 233°
2026-04-30 02:31 42.73953 -78.65747 12002 ft 149 kts 233°
2026-04-30 02:31 42.73326 -78.66868 11999 ft 149 kts 233°
2026-04-30 02:31 42.72698 -78.67991 12005 ft 150 kts 233°
2026-04-30 02:32 42.72061 -78.69126 12007 ft 151 kts 233°
2026-04-30 02:32 42.71423 -78.70261 12008 ft 151 kts 233°
2026-04-30 02:32 42.70786 -78.71400 12008 ft 151 kts 233°
2026-04-30 02:32 42.70149 -78.72537 12009 ft 151 kts 233°
2026-04-30 02:33 42.69509 -78.73677 12010 ft 152 kts 233°
2026-04-30 02:33 42.68869 -78.74818 12008 ft 152 kts 233°
2026-04-30 02:33 42.68236 -78.75946 12010 ft 152 kts 233°
2026-04-30 02:33 42.67582 -78.77107 12000 ft 152 kts 234°
2026-04-30 02:34 42.66942 -78.78247 12001 ft 152 kts 234°
2026-04-30 02:34 42.66304 -78.79382 12002 ft 151 kts 234°
2026-04-30 02:34 42.65667 -78.80515 12002 ft 151 kts 234°
2026-04-30 02:34 42.65029 -78.81650 12001 ft 151 kts 234°
2026-04-30 02:35 42.64390 -78.82783 12002 ft 151 kts 234°
2026-04-30 02:35 42.63755 -78.83911 12010 ft 151 kts 234°
2026-04-30 02:35 42.63126 -78.85029 12007 ft 151 kts 234°
2026-04-30 02:35 42.62490 -78.86157 12011 ft 150 kts 234°
2026-04-30 02:36 42.61854 -78.87284 12011 ft 150 kts 234°
2026-04-30 02:36 42.61219 -78.88411 12013 ft 151 kts 234°
2026-04-30 02:36 42.60581 -78.89542 12015 ft 151 kts 234°
2026-04-30 02:36 42.59943 -78.90672 12017 ft 151 kts 234°
2026-04-30 02:37 42.59303 -78.91806 12019 ft 151 kts 234°
2026-04-30 02:37 42.58664 -78.92938 12021 ft 151 kts 234°
2026-04-30 02:37 42.58023 -78.94071 12023 ft 151 kts 234°
2026-04-30 02:37 42.57382 -78.95205 12024 ft 151 kts 234°
2026-04-30 02:38 42.56743 -78.96336 12028 ft 151 kts 234°
2026-04-30 02:38 42.56104 -78.97465 12029 ft 151 kts 234°
2026-04-30 02:38 42.55464 -78.98595 12032 ft 151 kts 234°
2026-04-30 02:38 42.54825 -78.99726 12034 ft 151 kts 234°
2026-04-30 02:39 42.54184 -79.00857 12033 ft 151 kts 234°
2026-04-30 02:39 42.53544 -79.01986 12034 ft 151 kts 234°
2026-04-30 02:39 42.52904 -79.03115 12035 ft 151 kts 233°
2026-04-30 02:39 42.52266 -79.04242 12036 ft 151 kts 233°
2026-04-30 02:40 42.51627 -79.05368 12038 ft 151 kts 234°
2026-04-30 02:40 42.50987 -79.06496 12041 ft 152 kts 234°
2026-04-30 02:40 42.50343 -79.07631 12042 ft 152 kts 234°
2026-04-30 02:40 42.49694 -79.08773 12037 ft 152 kts 235°
2026-04-30 02:41 42.49052 -79.09903 12035 ft 151 kts 235°
2026-04-30 02:41 42.48413 -79.11028 12036 ft 150 kts 235°
2026-04-30 02:41 42.47776 -79.12148 12037 ft 150 kts 235°
2026-04-30 02:41 42.47139 -79.13267 12039 ft 150 kts 235°
2026-04-30 02:42 42.46505 -79.14384 12039 ft 150 kts 235°
2026-04-30 02:42 42.45867 -79.15504 12041 ft 150 kts 235°
2026-04-30 02:42 42.45231 -79.16622 12041 ft 150 kts 235°
2026-04-30 02:42 42.44594 -79.17741 12040 ft 150 kts 235°
2026-04-30 02:43 42.43955 -79.18861 12042 ft 150 kts 235°
2026-04-30 02:43 42.43315 -79.19984 12042 ft 150 kts 235°
2026-04-30 02:43 42.42678 -79.21100 12042 ft 150 kts 235°
2026-04-30 02:43 42.42043 -79.22214 12040 ft 149 kts 235°
2026-04-30 02:44 42.41410 -79.23323 12039 ft 149 kts 235°
2026-04-30 02:44 42.40776 -79.24435 12040 ft 149 kts 235°
2026-04-30 02:44 42.40139 -79.25551 12040 ft 150 kts 235°
2026-04-30 02:44 42.39500 -79.26669 12041 ft 150 kts 235°
2026-04-30 02:45 42.38860 -79.27788 12041 ft 150 kts 235°
2026-04-30 02:45 42.38222 -79.28906 12043 ft 150 kts 235°
2026-04-30 02:45 42.37584 -79.30022 12042 ft 150 kts 235°
2026-04-30 02:45 42.36947 -79.31135 12041 ft 149 kts 235°
2026-04-30 02:46 42.36312 -79.32243 12041 ft 149 kts 235°
2026-04-30 02:46 42.35686 -79.33338 12036 ft 149 kts 235°
2026-04-30 02:46 42.35052 -79.34444 12035 ft 149 kts 235°
2026-04-30 02:46 42.34416 -79.35554 12036 ft 149 kts 235°
2026-04-30 02:47 42.33779 -79.36666 12033 ft 150 kts 235°
2026-04-30 02:47 42.33141 -79.37779 12032 ft 150 kts 235°
2026-04-30 02:47 42.32503 -79.38891 12032 ft 150 kts 235°
2026-04-30 02:47 42.31865 -79.40003 12030 ft 150 kts 235°
2026-04-30 02:48 42.31228 -79.41112 12031 ft 149 kts 235°
2026-04-30 02:48 42.30593 -79.42219 12031 ft 149 kts 235°
2026-04-30 02:48 42.29954 -79.43332 12039 ft 150 kts 234°
2026-04-30 02:48 42.29312 -79.44448 12038 ft 150 kts 234°
2026-04-30 02:49 42.28669 -79.45567 12039 ft 151 kts 234°
2026-04-30 02:49 42.28022 -79.46691 12039 ft 152 kts 234°
2026-04-30 02:49 42.27375 -79.47817 12038 ft 152 kts 234°
2026-04-30 02:49 42.26727 -79.48943 12037 ft 152 kts 234°
2026-04-30 02:50 42.26080 -79.50066 12036 ft 152 kts 234°
2026-04-30 02:50 42.25434 -79.51188 12036 ft 151 kts 234°
2026-04-30 02:50 42.24787 -79.52311 12035 ft 152 kts 234°
2026-04-30 02:50 42.24140 -79.53434 12034 ft 152 kts 234°
2026-04-30 02:51 42.23492 -79.54558 12031 ft 152 kts 234°
2026-04-30 02:51 42.22844 -79.55681 12030 ft 152 kts 234°
2026-04-30 02:51 42.22196 -79.56804 12030 ft 152 kts 234°
2026-04-30 02:51 42.21547 -79.57928 12035 ft 152 kts 234°
2026-04-30 02:52 42.20899 -79.59051 12034 ft 152 kts 234°
2026-04-30 02:52 42.20250 -79.60175 12035 ft 152 kts 234°
2026-04-30 02:52 42.19601 -79.61298 12036 ft 152 kts 234°
2026-04-30 02:52 42.18951 -79.62421 12035 ft 152 kts 234°
2026-04-30 02:53 42.18302 -79.63544 12034 ft 152 kts 234°
2026-04-30 02:53 42.17653 -79.64666 12032 ft 152 kts 234°
2026-04-30 02:53 42.17000 -79.65794 12033 ft 152 kts 234°
2026-04-30 02:53 42.16349 -79.66919 12032 ft 152 kts 234°
2026-04-30 02:54 42.15698 -79.68042 12034 ft 152 kts 234°
2026-04-30 02:54 42.15049 -79.69164 12037 ft 152 kts 234°
2026-04-30 02:54 42.14399 -79.70284 12023 ft 151 kts 235°
2026-04-30 02:54 42.13753 -79.71399 12024 ft 150 kts 235°
2026-04-30 02:55 42.13110 -79.72507 12027 ft 150 kts 235°
2026-04-30 02:55 42.12466 -79.73617 12026 ft 150 kts 235°
2026-04-30 02:55 42.11823 -79.74724 12026 ft 150 kts 235°
2026-04-30 02:55 42.11181 -79.75830 12028 ft 150 kts 235°
2026-04-30 02:56 42.10539 -79.76937 12029 ft 150 kts 235°
2026-04-30 02:56 42.09896 -79.78041 12028 ft 150 kts 235°
2026-04-30 02:56 42.09258 -79.79140 12029 ft 149 kts 235°
2026-04-30 02:56 42.08616 -79.80244 12035 ft 150 kts 235°
2026-04-30 02:57 42.07980 -79.81338 12038 ft 151 kts 235°
2026-04-30 02:57 42.07332 -79.82451 12040 ft 151 kts 235°
2026-04-30 02:57 42.06675 -79.83580 12041 ft 152 kts 235°
2026-04-30 02:57 42.06032 -79.84684 12041 ft 151 kts 235°
2026-04-30 02:58 42.05383 -79.85797 12040 ft 151 kts 235°
2026-04-30 02:58 42.04735 -79.86909 12041 ft 151 kts 235°
2026-04-30 02:58 42.04086 -79.88022 12041 ft 151 kts 235°
2026-04-30 02:58 42.03437 -79.89134 12042 ft 151 kts 235°
2026-04-30 02:59 42.02788 -79.90247 12043 ft 152 kts 235°
2026-04-30 02:59 42.02136 -79.91365 12042 ft 152 kts 235°
2026-04-30 02:59 42.01486 -79.92477 12043 ft 151 kts 235°
2026-04-30 02:59 42.00837 -79.93589 12043 ft 151 kts 235°
2026-04-30 03:00 42.00188 -79.94700 12042 ft 151 kts 235°
2026-04-30 03:00 41.99537 -79.95813 12042 ft 151 kts 235°
2026-04-30 03:00 41.99106 -79.96551 12042 ft 151 kts 235°
2026-04-30 03:00 41.98455 -79.97663 12042 ft 151 kts 235°
2026-04-30 03:01 41.97805 -79.98773 12044 ft 151 kts 235°
2026-04-30 03:01 41.97155 -79.99884 12044 ft 151 kts 235°
2026-04-30 03:01 41.96508 -80.00989 12030 ft 150 kts 236°
2026-04-30 03:01 41.95860 -80.02096 12030 ft 150 kts 236°
2026-04-30 03:02 41.95215 -80.03197 12031 ft 150 kts 236°
2026-04-30 03:02 41.94570 -80.04297 12031 ft 150 kts 236°
2026-04-30 03:02 41.93927 -80.05394 12032 ft 149 kts 236°
2026-04-30 03:02 41.93283 -80.06491 12033 ft 150 kts 236°
2026-04-30 03:03 41.92637 -80.07592 12033 ft 150 kts 236°
2026-04-30 03:03 41.91346 -80.09791 12032 ft 150 kts 236°
2026-04-30 03:03 41.90702 -80.10888 12032 ft 150 kts 236°
2026-04-30 03:04 41.90055 -80.11989 12033 ft 150 kts 236°
2026-04-30 03:04 41.89407 -80.13091 12033 ft 150 kts 236°
2026-04-30 03:04 41.88759 -80.14191 12032 ft 150 kts 236°
2026-04-30 03:04 41.88113 -80.15290 12032 ft 150 kts 235°
2026-04-30 03:05 41.87476 -80.16373 12024 ft 150 kts 236°
2026-04-30 03:05 41.86822 -80.17485 11884 ft 152 kts 236°
2026-04-30 03:05 41.86189 -80.18560 11726 ft 142 kts 236°
2026-04-30 03:05 41.85588 -80.19577 11566 ft 136 kts 236°
2026-04-30 03:06 41.85008 -80.20560 11396 ft 132 kts 236°
2026-04-30 03:06 41.84451 -80.21504 11233 ft 129 kts 236°
2026-04-30 03:06 41.83889 -80.22459 11033 ft 132 kts 237°
2026-04-30 03:06 41.83315 -80.23433 10834 ft 134 kts 237°
2026-04-30 03:07 41.82736 -80.24413 10635 ft 134 kts 237°
2026-04-30 03:07 41.82155 -80.25397 10439 ft 135 kts 237°
2026-04-30 03:07 41.81575 -80.26380 10245 ft 135 kts 237°
2026-04-30 03:07 41.80991 -80.27368 10048 ft 135 kts 237°
2026-04-30 03:08 41.80406 -80.28358 9861 ft 135 kts 237°
2026-04-30 03:08 41.79823 -80.29343 9681 ft 134 kts 237°
2026-04-30 03:08 41.79245 -80.30322 9486 ft 134 kts 237°
2026-04-30 03:08 41.78669 -80.31296 9292 ft 133 kts 237°
2026-04-30 03:09 41.78098 -80.32259 9104 ft 131 kts 237°
2026-04-30 03:09 41.77532 -80.33212 8923 ft 131 kts 237°
2026-04-30 03:09 41.76968 -80.34169 8737 ft 131 kts 237°
2026-04-30 03:09 41.76405 -80.35120 8555 ft 130 kts 238°
2026-04-30 03:10 41.75841 -80.36073 8373 ft 131 kts 238°
2026-04-30 03:10 41.75289 -80.37001 8288 ft 124 kts 238°
2026-04-30 03:10 41.74760 -80.37887 8203 ft 120 kts 238°
2026-04-30 03:10 41.74247 -80.38755 8116 ft 118 kts 238°
2026-04-30 03:11 41.73740 -80.39614 8039 ft 116 kts 238°
2026-04-30 03:11 41.73242 -80.40453 8035 ft 118 kts 238°
2026-04-30 03:11 41.72711 -80.41351 8042 ft 127 kts 238°
2026-04-30 03:11 41.72153 -80.42292 8046 ft 130 kts 238°
2026-04-30 03:12 41.71583 -80.43253 8044 ft 133 kts 237°
2026-04-30 03:12 41.71001 -80.44232 8044 ft 139 kts 237°
2026-04-30 03:12 41.70367 -80.45300 8046 ft 152 kts 237°
2026-04-30 03:12 41.69695 -80.46436 8043 ft 158 kts 236°
2026-04-30 03:13 41.69002 -80.47599 8043 ft 161 kts 236°
2026-04-30 03:13 41.68295 -80.48784 8044 ft 165 kts 236°
2026-04-30 03:13 41.67543 -80.50045 8044 ft 180 kts 236°
2026-04-30 03:13 41.66775 -80.51401 8043 ft 184 kts 244°
2026-04-30 03:14 41.66314 -80.52993 8047 ft 185 kts 254°
2026-04-30 03:14 41.65883 -80.54618 8044 ft 186 kts 253°
2026-04-30 03:14 41.65438 -80.56246 8043 ft 187 kts 253°
2026-04-30 03:14 41.64988 -80.57887 8045 ft 188 kts 253°
2026-04-30 03:15 41.64536 -80.59531 8042 ft 188 kts 253°
2026-04-30 03:15 41.64257 -80.61194 8042 ft 186 kts 271°
2026-04-30 03:15 41.64307 -80.62927 7964 ft 189 kts 274°
2026-04-30 03:15 41.64339 -80.64707 7817 ft 193 kts 271°
2026-04-30 03:16 41.64310 -80.66508 7668 ft 195 kts 270°
2026-04-30 03:16 41.64274 -80.68253 7482 ft 181 kts 270°
2026-04-30 03:16 41.64245 -80.69860 7273 ft 166 kts 271°
2026-04-30 03:16 41.64216 -80.71369 7064 ft 159 kts 271°
2026-04-30 03:17 41.64186 -80.72826 6858 ft 155 kts 271°
2026-04-30 03:17 41.64158 -80.74263 6656 ft 158 kts 271°
2026-04-30 03:17 41.64128 -80.75768 6470 ft 165 kts 271°
2026-04-30 03:17 41.64096 -80.77284 6461 ft 164 kts 271°
2026-04-30 03:18 41.64064 -80.78834 6462 ft 172 kts 271°
2026-04-30 03:18 41.64027 -80.80479 6458 ft 181 kts 271°
2026-04-30 03:18 41.63992 -80.82199 6392 ft 188 kts 271°
2026-04-30 03:18 41.63955 -80.83961 6323 ft 189 kts 271°
2026-04-30 03:19 41.63920 -80.85700 6247 ft 186 kts 271°
2026-04-30 03:19 41.63883 -80.87428 6124 ft 186 kts 271°
2026-04-30 03:19 41.63848 -80.89152 6058 ft 184 kts 271°
2026-04-30 03:19 41.63811 -80.90842 6057 ft 181 kts 271°
2026-04-30 03:20 41.63777 -80.92519 6055 ft 180 kts 270°
2026-04-30 03:20 41.63740 -80.94186 6054 ft 180 kts 270°
2026-04-30 03:20 41.63703 -80.95855 6052 ft 179 kts 270°
2026-04-30 03:20 41.63667 -80.97526 6053 ft 182 kts 270°
2026-04-30 03:21 41.63629 -80.99231 6057 ft 185 kts 270°
2026-04-30 03:21 41.63590 -81.00959 6060 ft 187 kts 270°
2026-04-30 03:21 41.63552 -81.02697 6063 ft 187 kts 270°
2026-04-30 03:21 41.63512 -81.04440 6066 ft 188 kts 270°
2026-04-30 03:22 41.63473 -81.06185 6071 ft 188 kts 270°
2026-04-30 03:22 41.63433 -81.07947 5963 ft 193 kts 270°
2026-04-30 03:22 41.63392 -81.09756 5784 ft 197 kts 270°
2026-04-30 03:22 41.63349 -81.11597 5605 ft 199 kts 270°
2026-04-30 03:23 41.63305 -81.13449 5426 ft 200 kts 270°
2026-04-30 03:23 41.63262 -81.15313 5236 ft 202 kts 270°
2026-04-30 03:23 41.63218 -81.17197 5008 ft 204 kts 270°
2026-04-30 03:23 41.63172 -81.19101 4783 ft 206 kts 270°
2026-04-30 03:24 41.63127 -81.21020 4551 ft 207 kts 270°
2026-04-30 03:24 41.63083 -81.22946 4315 ft 207 kts 270°
2026-04-30 03:24 41.63036 -81.24869 4083 ft 208 kts 270°
2026-04-30 03:24 41.62985 -81.26790 3849 ft 204 kts 270°
2026-04-30 03:25 41.62945 -81.28621 3621 ft 192 kts 269°
2026-04-30 03:25 41.62905 -81.30369 3437 ft 186 kts 269°
2026-04-30 03:25 41.62862 -81.32080 3256 ft 183 kts 269°
2026-04-30 03:25 41.62819 -81.33774 3072 ft 182 kts 269°
2026-04-30 03:26 41.62776 -81.35466 2888 ft 179 kts 269°
2026-04-30 03:26 41.62738 -81.37095 2703 ft 173 kts 269°
2026-04-30 03:26 41.62698 -81.38675 2559 ft 168 kts 270°
2026-04-30 03:26 41.62657 -81.40210 2475 ft 163 kts 270°
2026-04-30 03:27 41.62622 -81.41694 2394 ft 160 kts 270°
2026-04-30 03:27 41.62582 -81.43145 2303 ft 138 kts 270°
2026-04-30 03:27 41.62561 -81.44231 2186 ft 102 kts 270°
2026-04-30 03:27 41.62539 -81.45111 2015 ft 88 kts 275°
2026-04-30 03:28 41.62519 -81.45856 1784 ft 75 kts 273°
2026-04-30 03:28 41.62502 -81.46539 1487 ft 73 kts 274°
2026-04-30 03:28 41.62452 -81.47420 1934 ft 106 kts 270°
2026-04-30 03:28 41.61955 -81.48264 2284 ft 139 kts 198°
2026-04-30 03:29 41.60905 -81.48428 2314 ft 162 kts 187°
2026-04-30 03:29 41.59970 -81.49110 2368 ft 152 kts 238°
2026-04-30 03:29 41.59529 -81.50386 2299 ft 152 kts 248°
2026-04-30 03:29 41.59132 -81.51729 2135 ft 155 kts 258°
2026-04-30 03:30 41.59211 -81.53102 2009 ft 149 kts 293°
2026-04-30 03:30 41.59597 -81.54402 1897 ft 150 kts 292°
2026-04-30 03:30 41.59641 -81.55666 2191 ft 131 kts 261°
2026-04-30 03:30 41.59291 -81.56855 2090 ft 144 kts 242°
2026-04-30 03:31 41.58729 -81.57951 2039 ft 149 kts 233°
2026-04-30 03:31 41.57980 -81.58946 1948 ft 150 kts 221°
2026-04-30 03:31 41.57118 -81.59742 1927 ft 148 kts 216°
2026-04-30 03:31 41.56246 -81.60500 1839 ft 152 kts 216°
2026-04-30 03:32 41.55418 -81.61359 1831 ft 147 kts 227°
2026-04-30 03:32 41.54822 -81.62455 1772 ft 145 kts 255°
2026-04-30 03:32 41.54855 -81.63691 1789 ft 131 kts 299°
2026-04-30 03:32 41.55244 -81.64744 1827 ft 123 kts 297°
2026-04-30 03:33 41.55548 -81.65810 1911 ft 115 kts 294°
2026-04-30 03:33 41.55792 -81.66889 1907 ft 131 kts 285°
2026-04-30 03:33 41.55889 -81.68155 1827 ft 143 kts 270°
2026-04-30 03:33 41.55764 -81.69412 2011 ft 135 kts 258°
2026-04-30 03:34 41.55383 -81.70667 1796 ft 155 kts 243°
2026-04-30 03:34 41.54688 -81.71869 1499 ft 169 kts 232°
2026-04-30 03:34 41.53771 -81.72692 1596 ft 160 kts 199°
2026-04-30 03:34 41.52684 -81.72689 1384 ft 154 kts 159°
2026-04-30 03:35 41.51940 -81.71991 1220 ft 108 kts 128°
2026-04-30 03:35 41.51511 -81.71238 1110 ft 99 kts 122°
2026-04-30 03:35 41.51145 -81.70425 945 ft 105 kts 106°
2026-04-30 03:35 41.51222 -81.69588 738 ft 90 kts 45°
2026-04-30 03:36 41.51538 -81.68934 589 ft 72 kts 50°
2026-04-30 03:36 41.51747 -81.68507 588 ft 43 kts 58°
2026-04-30 03:36 41.51885 -81.68224 589 ft 30 kts 52°
2026-04-30 03:36 41.51858 -81.68125 590 ft 10 kts 148°
2026-04-30 03:37 41.51806 -81.68085 590 ft 6 kts 144°
2026-04-30 03:37 41.51760 -81.68045 589 ft 10 kts 152°
2026-04-30 03:37 41.51702 -81.68103 588 ft 13 kts 239°
2026-04-30 03:37 41.51653 -81.68212 588 ft 14 kts 234°
2026-04-30 03:38 41.51600 -81.68320 589 ft 14 kts 239°
2026-04-30 03:38 41.51541 -81.68368 587 ft 12 kts 147°
2026-04-30 03:38 41.51505 -81.68392 586 ft 0 kts 332°
2026-04-30 03:45 41.51504 -81.68392 586 ft 0 kts 332°
2026-04-30 03:46 41.51504 -81.68391 586 ft 0 kts 332°